When you browse on this site, cookies collect data to enhance your experience and personalize the content and advertising you see.
Visit our Privacy Policy to learn more. By continuing to use the site, you agree to this use of cookies and data.
  • In Portugal
  • List of Countries
  • For 7 days
  • Water Temperature
  • Satellite Maps
  • Weather Map
  • Weather Widgets
  • user-avatar
    Login

    Hourly Weather Silistra

    Today, 21 January, Monday

    Time Temperature Precipitation Wind Pressure Humidity
    00:00 +3°C° 0 mm 4 mps 756 mmHg 95%
    01:00 +1°C° 0 mm 5 mps 756 mmHg 94%
    02:00 0°C° 0 mm 5 mps 756 mmHg 92%
    03:00 0°C° 0 mm 5 mps 756 mmHg 91%
    04:00 0°C° 0 mm 5 mps 757 mmHg 90%
    05:00 -1°C° 0 mm 5 mps 757 mmHg 90%
    06:00 -1°C° 0 mm 4 mps 757 mmHg 91%
    07:00 -2°C° 0 mm 4 mps 758 mmHg 92%
    08:00 -1°C° 0 mm 3 mps 758 mmHg 92%
    09:00 -1°C° 0 mm 3 mps 759 mmHg 87%
    10:00 0°C° 0 mm 3 mps 759 mmHg 82%
    11:00 +2°C° 0 mm 2 mps 760 mmHg 77%
    12:00 +1°C° 0 mm 3 mps 760 mmHg 74%
    13:00 +1°C° 0 mm 3 mps 760 mmHg 71%
    14:00 +2°C° 0 mm 3 mps 760 mmHg 66%
    15:00 +1°C° 0 mm 3 mps 761 mmHg 70%
    16:00 +1°C° 0 mm 2 mps 761 mmHg 73%
    17:00 +1°C° 0 mm 2 mps 761 mmHg 77%
    18:00 -1°C° 0 mm 2 mps 761 mmHg 79%
    19:00 -1°C° 0 mm 2 mps 761 mmHg 82%
    20:00 -2°C° 0 mm 2 mps 762 mmHg 85%
    21:00 -2°C° 0 mm 2 mps 762 mmHg 84%
    22:00 -2°C° 0 mm 2 mps 762 mmHg 84%
    23:00 -2°C° 0 mm 2 mps 762 mmHg 84%

    Tomorrow, 22 January, Tuesday

    Time Temperature Precipitation Wind Pressure Humidity
    00:00 -2°C° 0 mm 2 mps 762 mmHg 84%
    01:00 -3°C° 0 mm 2 mps 762 mmHg 83%
    02:00 -3°C° 0 mm 2 mps 762 mmHg 83%
    03:00 -3°C° 0 mm 2 mps 762 mmHg 82%
    04:00 -3°C° 0 mm 2 mps 761 mmHg 82%
    05:00 -3°C° 0 mm 2 mps 761 mmHg 81%
    06:00 -3°C° 0 mm 2 mps 761 mmHg 81%
    07:00 -2°C° 0 mm 2 mps 761 mmHg 82%
    08:00 -2°C° 0 mm 3 mps 761 mmHg 82%
    09:00 -1°C° 0 mm 3 mps 760 mmHg 79%
    10:00 -1°C° 0 mm 4 mps 760 mmHg 76%
    11:00 +1°C° 0 mm 4 mps 760 mmHg 73%
    12:00 +1°C° 0 mm 4 mps 759 mmHg 73%
    13:00 +3°C° 0 mm 4 mps 759 mmHg 72%
    14:00 +4°C° 0 mm 4 mps 758 mmHg 72%
    15:00 +3°C° 0 mm 4 mps 757 mmHg 76%
    16:00 +3°C° 0 mm 4 mps 757 mmHg 80%
    17:00 +1°C° 0 mm 4 mps 756 mmHg 85%
    18:00 +1°C° 0 mm 4 mps 756 mmHg 87%
    19:00 +1°C° 0 mm 4 mps 755 mmHg 89%
    20:00 0°C° 0 mm 4 mps 755 mmHg 91%
    21:00 +1°C° 0 mm 4 mps 754 mmHg 91%
    22:00 +3°C° 0 mm 4 mps 754 mmHg 90%
    23:00 +2°C° 0 mm 5 mps 753 mmHg 90%

    Day after tomorrow, 23 January, Wednesday

    Time Temperature Precipitation Wind Pressure Humidity
    00:00 +2°C° 0 mm 5 mps 753 mmHg 90%
    01:00 +3°C° 0 mm 5 mps 752 mmHg 90%
    02:00 +3°C° 0 mm 5 mps 751 mmHg 90%
    03:00 +3°C° 0.5 mm 5 mps 750 mmHg 90%
    04:00 +5°C° 0.5 mm 5 mps 749 mmHg 91%
    05:00 +5°C° 0.5 mm 5 mps 749 mmHg 91%
    06:00 +5°C° 0.5 mm 5 mps 748 mmHg 91%
    07:00 +5°C° 0.5 mm 4 mps 748 mmHg 91%
    08:00 +5°C° 0.5 mm 4 mps 748 mmHg 91%
    09:00 +6°C° 0 mm 4 mps 748 mmHg 86%
    10:00 +8°C° 0 mm 5 mps 748 mmHg 81%
    11:00 +9°C° 0 mm 5 mps 748 mmHg 76%
    12:00 +9°C° 0 mm 5 mps 748 mmHg 73%
    13:00 +10°C° 0 mm 4 mps 747 mmHg 70%
    14:00 +10°C° 0 mm 4 mps 747 mmHg 67%
    15:00 +9°C° 0 mm 3 mps 747 mmHg 72%
    16:00 +8°C° 0 mm 2 mps 747 mmHg 76%
    17:00 +8°C° 0 mm 1 mps 747 mmHg 80%
    18:00 +8°C° 0 mm 1 mps 748 mmHg 82%
    19:00 +7°C° 0 mm 1 mps 748 mmHg 84%
    20:00 +7°C° 0 mm 1 mps 748 mmHg 86%
    21:00 +7°C° 0 mm 1 mps 748 mmHg 87%
    22:00 +6°C° 0 mm 2 mps 748 mmHg 88%
    23:00 +6°C° 0 mm 2 mps 748 mmHg 89%

    24 January, Thursday

    Time Temperature Precipitation Wind Pressure Humidity
    00:00 +6°C° 0.1 mm 2 mps 748 mmHg 90%
    01:00 +6°C° 0.1 mm 2 mps 748 mmHg 90%
    02:00 +7°C° 0.1 mm 2 mps 748 mmHg 91%
    03:00 +6°C° 0.4 mm 2 mps 748 mmHg 93%
    04:00 +6°C° 0.4 mm 2 mps 747 mmHg 94%
    05:00 +6°C° 0.4 mm 2 mps 747 mmHg 95%
    06:00 +5°C° 1.2 mm 3 mps 747 mmHg 95%
    07:00 +5°C° 1.2 mm 3 mps 747 mmHg 96%
    08:00 +4°C° 1.2 mm 4 mps 747 mmHg 96%
    09:00 +5°C° 1.3 mm 4 mps 747 mmHg 93%
    10:00 +5°C° 1.3 mm 5 mps 747 mmHg 91%
    11:00 +5°C° 1.3 mm 5 mps 748 mmHg 88%
    12:00 +3°C° 0.1 mm 6 mps 747 mmHg 87%
    13:00 +3°C° 0.1 mm 6 mps 747 mmHg 86%
    14:00 +2°C° 0.1 mm 7 mps 747 mmHg 86%
    15:00 0°C° 0.1 mm 7 mps 747 mmHg 87%
    16:00 -1°C° 0.1 mm 7 mps 747 mmHg 88%
    17:00 -1°C° 0.1 mm 8 mps 747 mmHg 89%
    18:00 -2°C° 0.1 mm 8 mps 747 mmHg 88%
    19:00 -2°C° 0.1 mm 8 mps 748 mmHg 88%
    20:00 -2°C° 0.1 mm 8 mps 748 mmHg 87%
    21:00 -2°C° 0.1 mm 8 mps 748 mmHg 87%
    22:00 -4°C° 0.1 mm 8 mps 749 mmHg 87%
    23:00 -3°C° 0.1 mm 7 mps 749 mmHg 87%

    25 January, Friday

    Time Temperature Precipitation Wind Pressure Humidity
    00:00 -3°C° 0.1 mm 7 mps 749 mmHg 87%
    01:00 -3°C° 0.1 mm 7 mps 749 mmHg 87%
    02:00 -4°C° 0.1 mm 8 mps 749 mmHg 88%
    03:00 -5°C° 0.2 mm 8 mps 749 mmHg 88%
    04:00 -5°C° 0.2 mm 8 mps 749 mmHg 89%
    05:00 -5°C° 0.2 mm 8 mps 749 mmHg 89%
    06:00 -5°C° 0.9 mm 8 mps 750 mmHg 90%
    07:00 -6°C° 0.9 mm 7 mps 750 mmHg 91%
    08:00 -6°C° 0.9 mm 7 mps 751 mmHg 93%
    09:00 -6°C° 0.3 mm 7 mps 751 mmHg 92%
    10:00 -6°C° 0.3 mm 7 mps 752 mmHg 92%
    11:00 -5°C° 0.3 mm 6 mps 752 mmHg 91%
    12:00 -5°C° 0.1 mm 6 mps 752 mmHg 91%
    13:00 -5°C° 0.1 mm 6 mps 752 mmHg 91%
    14:00 -6°C° 0.1 mm 6 mps 752 mmHg 90%
    15:00 -6°C° 0 mm 6 mps 752 mmHg 90%
    16:00 -7°C° 0 mm 7 mps 752 mmHg 90%
    17:00 -7°C° 0 mm 7 mps 752 mmHg 91%
    18:00 -8°C° 0.5 mm 7 mps 752 mmHg 92%
    19:00 -8°C° 0.5 mm 7 mps 753 mmHg 92%
    20:00 -8°C° 0.5 mm 6 mps 753 mmHg 93%
    21:00 -8°C° 0.3 mm 6 mps 753 mmHg 93%
    22:00 -8°C° 0.3 mm 6 mps 753 mmHg 93%
    23:00 -8°C° 0.3 mm 6 mps 753 mmHg 93%

    26 January, Saturday

    Time Temperature Precipitation Wind Pressure Humidity
    00:00 -8°C° 0.2 mm 6 mps 752 mmHg 93%
    01:00 -8°C° 0.2 mm 6 mps 752 mmHg 92%
    02:00 -8°C° 0.2 mm 6 mps 752 mmHg 92%
    03:00 -8°C° 0.2 mm 6 mps 752 mmHg 92%
    04:00 -9°C° 0.2 mm 6 mps 752 mmHg 93%
    05:00 -9°C° 0.2 mm 7 mps 751 mmHg 93%
    06:00 -9°C° 1.1 mm 6 mps 752 mmHg 94%
    07:00 -9°C° 1.1 mm 6 mps 752 mmHg 95%
    08:00 -9°C° 1.1 mm 6 mps 753 mmHg 95%
    09:00 -9°C° 1 mm 6 mps 753 mmHg 95%
    10:00 -8°C° 1 mm 5 mps 753 mmHg 95%
    11:00 -8°C° 1 mm 5 mps 754 mmHg 95%
    12:00 -8°C° 0.5 mm 4 mps 754 mmHg 94%
    13:00 -8°C° 0.5 mm 4 mps 754 mmHg 94%
    14:00 -8°C° 0.5 mm 4 mps 754 mmHg 93%
    15:00 -8°C° 0.1 mm 4 mps 754 mmHg 92%
    16:00 -7°C° 0.1 mm 3 mps 754 mmHg 92%
    17:00 -6°C° 0.1 mm 3 mps 754 mmHg 91%
    18:00 -7°C° 0 mm 3 mps 754 mmHg 91%
    19:00 -7°C° 0 mm 2 mps 755 mmHg 92%
    20:00 -8°C° 0 mm 2 mps 755 mmHg 92%
    21:00 -8°C° 0 mm 2 mps 755 mmHg 91%
    22:00 -8°C° 0 mm 2 mps 755 mmHg 91%
    23:00 -7°C° 0 mm 2 mps 755 mmHg 91%
    Show more